Voltar ao catálogo

STARLINK-37872

AtivoComunicaçõesSSO
NORAD 69433·PAYLOAD·🇺🇸 United States

Lançado Jun 7, 2026 de Vandenberg Space Force Base

Loading…

Próximas Passagens (próximas 24 horas)

TLE

AtualizadoSource: CelesTrak SupGP

Época: Sep 14, 2026, 23:23 UTC

1 69433C 26126P   26257.97479167  .00092078  00000+0  28587-2 0  2578
2 69433  97.2849 119.2677 0002330  94.7223   2.5105 15.33386051    13

Acompanhe STARLINK-37872 em tempo real com AllMySat

Download on the App Store